Regional Weather Roundup
Issued by NWS

Home | Current Version | Previous Version | Text Only | Print | Product List | Glossary Off
Versions: 1 2 3 4 5 6 7 8 9 10 11 12 13 14 15 16 17 18 19 20 21 22 23 24 25 26 27 28 29 30 31 32 33 34 35 36 37 38 39 40 41 42 43 44 45 46 47 48 49 50

000
ASUS45 KSLC 170410
RWRUT

UTAH REGIONAL WEATHER ROUNDUP
NATIONAL WEATHER SERVICE SALT LAKE CITY UT
1000 PM MDT TUE SEP 16 2014

UTZ001>011-023>025-170500-

NORTHERN UTAH

CITY           SKY/WX    TMP DP  RH WIND       PRES   REMARKS
HILL AFB       CLEAR     75  42  30 E13       30.01S
LOGAN          CLEAR     70  45  40 SW3       29.99R
OGDEN          CLEAR     73  43  33 S10       29.97F
PROVO AIRPORT  CLEAR     66  46  48 SE6       30.02F
SALT LAKE CITY CLEAR     75  42  30 SE9       29.97R
VERNAL         PTCLDY    67  43  41 CALM      30.11R
WENDOVER       CLEAR     79  37  22 N6        29.94S
HEBER CITY     CLEAR     59  41  51 CALM      30.12R
WEST JORDAN    CLEAR     73  39  29 SW7       30.01S

$$

UTZ012>022-026-027-170500-

SOUTHERN UTAH

CITY           SKY/WX    TMP DP  RH WIND       PRES   REMARKS
BRYCE CANYON   MOCLDY    53  44  71 CALM      30.31R
CEDAR CITY     PTCLDY    70  43  37 SE7       30.11R
MILFORD        CLEAR     69  33  26 SW6       30.04R
MOAB/CYNLANDS  CLEAR     70  41  34 W3        30.03R
PRICE          PTCLDY    68  34  28 NE7       30.15R
ST GEORGE      CLEAR     84  48  28 SE6       29.90S

$$

REGIONAL REPORTS     COLORADO/ARIZONA

CITY           SKY/WX    TMP DP  RH WIND       PRES   REMARKS
CRAIG, CO      MOCLDY    54  43  66 W3        30.20R
GRAND JUNCTION CLEAR     65  42  43 E5        30.07S
RIFLE          CLEAR     62  43  49 S7        30.15R
MONTROSE       CLEAR     64  43  46 SE8       30.18R
CORTEZ         CLOUDY    63  48  58 CALM      30.19R
PAGE, AZ       CLOUDY    81  46  29 S9        30.05R
GRAND CANYON   CLOUDY    64  53  67 SE7       30.25R
KINGMAN        CLOUDY    70  62  76 E6        30.02F
FLAGSTAFF      CLOUDY    61  54  77 CALM      30.28R

$$

REGIONAL REPORTS    NEVADA/IDAHO/WYOMING

CITY           SKY/WX    TMP DP  RH WIND       PRES   REMARKS
LAS VEGAS, NV  PTCLDY    86  57  37 S26G38    29.83R
ELY            CLEAR     66  37  34 S13       30.14R
ELKO           CLEAR     71  35  26 CALM      29.99S
POCATELLO, ID  PTCLDY    70  37  29 CALM      29.99R
BURLEY         PTCLDY    63  49  60 CALM      29.94S
EVANSTON, WY   CLEAR     63  37  38 S9        30.23S
ROCK SPRINGS   MOCLDY    65  36  34 W8        30.21S

$$


USA.gov is the U.S. government's official web portal to all federal, state and local government web resources and services.